{"data":{"norad_id":66554,"intl_designator":"2025-267A","name":"GLOBAL-33","alt_names":[],"object_type":"PAYLOAD","status":"ACTIVE","operator":null,"country":"US","launch_date":"2025-11-20","launch_site_code":"RLLB","launch_vehicle":null,"mission":null,"orbit_class":"UNKNOWN","rcs_meters":null,"size_class":null,"mass_kg":null,"dimensions":null,"purposes":[],"wikipedia_slug":null,"has_3d_model":false,"image_url":null,"decayed_at":null,"tle_current":{"epoch":"2026-05-25T03:48:00.742752Z","epoch_age_seconds":68181,"freshness":"FRESH","line1":"1 66554U 25267A   26145.15834193  .00009372  00000+0  26738-3 0  9999","line2":"2 66554  42.0184 190.2203 0007092 103.8181 256.3447 15.36117662 28508","mean_motion":15.36117662,"eccentricity":0.0007092,"inclination_deg":42.0184,"raan_deg":190.2203,"arg_perigee_deg":103.8181,"mean_anomaly_deg":256.3447,"bstar":0.00026738,"rev_number":2850,"period_min":93.742819031528,"perigee_km":452.75483790343,"apogee_km":462.45065115707,"semimajor_km":6835.7397445303,"source":"CELESTRAK","updated_at":"2026-05-25T13:38:06.304725Z"}}}